Regional Weather Roundup
Issued by NWS

Home | Current Version | Previous Version | Text Only | Print | Product List | Glossary Off
Versions: 1 2 3 4 5 6 7 8 9 10 11 12 13 14 15 16 17 18 19 20 21 22 23 24 25 26 27 28 29 30 31 32 33 34 35 36 37 38 39 40 41 42 43 44 45 46 47 48 49 50

000
ASUS44 KMEG 050210
RWRTN
TENNESSEE HOURLY STATE WEATHER ROUNDUP
NATIONAL WEATHER SERVICE MEMPHIS TN
900 PM CDT SAT JUL 04 2015

TNZ002-004-019-021-049-052-054-088>092-050300-
WEST TENNESSEE

CITY           SKY/WX    TMP DP  RH WIND       PRES   REMARKS
MEMPHIS INTL   CLOUDY    75  70  84 S5        29.99R
NWS MEMPHIS      N/A     73 N/A N/A MISG        N/A
JACKSON        CLOUDY    72  69  90 SW5       30.00R
DYERSBURG        N/A    N/A N/A N/A MISG        N/A
PARIS          CLEAR     70  70 100 CALM      29.99S
LEXINGTON      CLOUDY    72  70  94 SW8       29.99R
$$

TNZ008-025-027-028-033-062-065-066-050300-
NORTH MIDDLE TENNESSEE

CITY           SKY/WX    TMP DP  RH WIND       PRES   REMARKS
NASHVILLE      LGT RAIN  70  69  97 S5        30.00S
CLARKSVILLE    CLOUDY    73  68  84 CALM      29.98S
SMYRNA         LGT RAIN  69  68  97 CALM      30.01R
COOKEVILLE     PTCLDY    75  72  88 S5        30.01R
CROSSVILLE     CLOUDY    72  68  87 S3        30.06S
$$

TNZ061-075-076-078-094-096-097-050300-
SOUTH MIDDLE TENNESSEE

CITY           SKY/WX    TMP DP  RH WIND       PRES   REMARKS
FAYETTEVILLE     N/A     70  70 100 W7        30.01F
TULLAHOMA      CLOUDY    70  66  88 W10       30.03R
WINCHESTER     CLOUDY    73  70  88 SW7       30.02S
MCMINNVILLE    CLOUDY    72  72 100 SE7       30.02R
COLUMBIA       CLOUDY    72  72 100 S5        29.99F
SHELBYVILLE    CLOUDY    72  70  94 SW3         N/A
$$

TNZ017-018-042-046-047-050300-
NORTHEAST TENNESSEE

CITY           SKY/WX    TMP DP  RH WIND       PRES   REMARKS
TRI CITIES     CLOUDY    70  67  90 S6        30.08R
ELIZABETHTON   LGT RAIN  68  66  94 CALM      30.09R
$$

TNZ012-013-036-069-073-074-050300-
CENTRAL EAST TENNESSEE

CITY           SKY/WX    TMP DP  RH WIND       PRES   REMARKS
KNOXVILLE      CLOUDY    74  68  81 CALM      30.03R
OAK RIDGE      MOCLDY    73  70  90 CALM      30.04R
GATLINBURG     CLEAR     72  66  83 CALM      30.04R
MORRISTOWN     CLEAR     70  70 100 CALM      30.07R
$$

TNZ083-085-099-050300-
SOUTHEAST TENNESSEE

CITY           SKY/WX    TMP DP  RH WIND       PRES   REMARKS
CHATTANOOGA    CLOUDY    77  70  79 CALM      30.01S
$$

SKY/WX REPORTED AS FAIR MEANS FEW OR NO CLOUDS BELOW
12 THOUSAND FEET.



USA.gov is the U.S. government's official web portal to all federal, state and local government web resources and services.